Location: Champs
(48.8539°N, 2.6040°E)
Time: 09:37:25
(UTC+00:00)

USA 308 - Pass Details

Date: 02 June 2022
Orbit: 549 x 558 km, 54.0° (Epoch: 14 June)

Event Time Altitude Azimuth Distance (km) Brightness Sun altitude
Rises 20:46:55 0° 189° (S) 2,711 6.0 -8.3°
Reaches altitude 10° 20:49:52 10° 166° (SSE) 1,825 4.9 -8.6°
Maximum altitude 20:52:20 16° 130° (SE) 1,508 4.4 -8.9°
Drops below altitude 10° 20:54:49 10° 93° (E) 1,837 5.1 -9.1°
Sets 20:57:48 0° 71° (ENE) 2,739 6.2 -9.4°
